Location: Newark
(52.2090°N, 4.1550°W)
Time: 07:35:53
(UTC+00:00)

Transit 4A - Pass Details

Date: 25 October 2019
Orbit: 868 x 976 km, 66.8° (Epoch: 16 November)

Event Time Altitude Azimuth Distance (km) Brightness Sun altitude
Exits shadow 04:52:29 28° 229° (SW) 1,713 8.8 -19.9°
Maximum altitude 04:55:59 76° 311° (NW) 982 7.9 -19.4°
Drops below altitude 10° 05:02:11 10° 38° (NE) 2,644 10.8 -18.4°
Sets 05:04:41 0° 40° (NE) 3,573 11.6 -18.0°
